User: anonymous   Login
Location: Kuppenheim
(48.8299°N, 8.2568°E)
Time: 02:52:02
(UTC+00:00)
Language:

EXPRESS MD2 - Orbit

View from above orbital plane
View from above orbital plane
View from above satellite
View from above satellite

Ground track
Ground track

The orbit data is extracted from the following two-line orbital elements,

1 38745U 12044B   21270.68517517  .00009995  29513-5  25850-3 0  9990
2 38745  49.8738 341.7532 2168366 350.4479   6.0646 11.12163043359165
Epoch (UTC): 27 September 2021 16:26:39
Eccentricity: 0.2168366
inclination: 49.8738°
perigee height: 261 km
apogee height: 3938 km
right ascension of ascending node: 341.7532°
argument of perigee: 350.4479°
revolutions per day: 11.12163043
mean anomaly at epoch: 6.0646°
orbit number at epoch: 35916

The dashed part of the orbit path shows where the satellite is in the earth's shadow,  

DLR